Location: Unspecified
(55.7024°N, 37.6611°E)
Time: 18:31:31
(UTC+03:00)

Altair - All Passes

Search period start: 23 June 2025 00:00
Search period end: 03 July 2025 00:00
Orbit: 1502 x 1682 km, 47.2° (Epoch: 23 June)

Date Brightness Start Highest point End Pass type
(mag) Time Alt. Az. Time Alt. Az. Time Alt. Az.
23 Jun - 01:00:39 10° WSW 01:09:30 52° S 01:18:40 10° ESE visible
23 Jun - 03:04:25 10° W 03:13:07 44° SSW 03:22:07 10° SE daylight
23 Jun - 05:09:07 10° W 05:16:04 23° SW 05:23:11 10° S daylight
23 Jun - 20:34:44 10° SSE 20:38:45 14° SE 20:42:47 10° ESE daylight
23 Jun - 22:33:02 10° SSW 22:41:02 35° SSE 22:49:12 10° E visible
24 Jun - 00:35:32 10° WSW 00:44:21 51° S 00:53:28 10° ESE visible
24 Jun - 02:39:15 10° W 02:47:58 45° SSW 02:57:00 10° SE visible
24 Jun - 04:43:49 10° W 04:50:59 25° SW 04:58:21 10° S daylight
24 Jun - 20:10:33 10° SSE 20:13:45 12° SE 20:16:57 10° ESE daylight
24 Jun - 22:08:06 10° SSW 22:15:57 33° SSE 22:23:57 10° E visible
25 Jun - 00:10:26 10° WSW 00:19:12 50° S 00:28:16 10° E visible
25 Jun - 02:14:05 10° W 02:22:50 46° SSW 02:31:52 10° SE visible
25 Jun - 04:18:33 10° W 04:25:54 26° SW 04:33:28 10° SSE daylight
25 Jun - 19:46:45 10° SE 19:48:45 11° SE 19:50:46 10° ESE daylight
25 Jun - 21:43:09 10° SSW 21:50:51 32° SSE 21:58:42 10° E daylight
25 Jun - 23:45:19 10° WSW 23:54:04 50° S 00:03:04 10° E visible
26 Jun - 01:48:56 10° W 01:57:41 47° SSW 02:06:44 10° SE visible
26 Jun - 03:53:18 10° W 04:00:49 28° SW 04:08:33 10° SSE daylight
26 Jun - 21:18:14 10° SSW 21:25:46 30° SE 21:33:26 10° E daylight
26 Jun - 23:20:13 10° WSW 23:28:55 49° SSE 23:37:52 10° E visible
27 Jun - 01:23:46 10° W 01:32:32 48° SSW 01:41:35 10° ESE visible
27 Jun - 03:28:04 10° W 03:35:44 29° SW 03:43:37 10° SSE daylight
27 Jun - 20:53:21 10° SSW 21:00:42 28° SE 21:08:10 10° E daylight
27 Jun - 22:55:08 10° WSW 23:03:47 48° SSE 23:12:40 10° E visible
28 Jun - 00:58:38 10° W 01:07:24 49° S 01:16:26 10° ESE visible
28 Jun - 03:02:50 10° W 03:10:38 31° SW 03:18:39 10° SSE daylight
28 Jun - 05:11:09 10° WSW 05:12:49 11° SW 05:14:30 10° SW daylight
28 Jun - 20:28:28 10° SSW 20:35:38 27° SE 20:42:54 10° E daylight
28 Jun - 22:30:03 10° SW 22:38:39 47° SSE 22:47:27 10° E visible
29 Jun - 00:33:29 10° W 00:42:14 50° S 00:51:17 10° ESE visible
29 Jun - 02:37:37 10° W 02:45:32 32° SSW 02:53:41 10° SSE visible
29 Jun - 04:44:48 10° WSW 04:47:49 12° SW 04:50:51 10° SW daylight
29 Jun - 20:03:38 10° S 20:10:35 25° SE 20:17:36 10° E daylight
29 Jun - 22:04:58 10° SW 22:13:31 46° SSE 22:22:15 10° E visible
30 Jun - 00:08:20 10° W 00:17:05 50° S 00:26:08 10° ESE visible
30 Jun - 02:12:25 10° W 02:20:26 34° SSW 02:28:41 10° SSE visible
30 Jun - 04:18:57 10° WSW 04:22:47 13° SW 04:26:41 10° SSW daylight
30 Jun - 19:38:49 10° S 19:45:32 23° SE 19:52:18 10° E daylight
30 Jun - 21:39:55 10° SW 21:48:24 44° SSE 21:57:03 10° E daylight
30 Jun - 23:43:11 10° WSW 23:51:57 51° S 00:00:57 10° ESE visible
01 Jul - 01:47:13 10° W 01:55:20 35° SSW 02:03:40 10° SSE visible
01 Jul - 03:53:17 10° W 03:57:46 14° SW 04:02:19 10° SSW daylight
01 Jul - 19:14:03 10° S 19:20:30 22° SE 19:26:57 10° E daylight
01 Jul - 21:14:51 10° SW 21:23:16 43° SSE 21:31:51 10° E daylight
01 Jul - 23:18:02 10° WSW 23:26:48 51° S 23:35:48 10° ESE visible
02 Jul - 01:22:02 10° W 01:30:13 37° SSW 01:38:38 10° SE visible
02 Jul - 03:27:44 10° W 03:32:44 16° SW 03:37:50 10° SSW daylight
02 Jul - 18:49:18 10° S 18:55:27 20° SE 19:01:37 10° E daylight
02 Jul - 20:49:48 10° SW 20:58:10 42° SSE 21:06:38 10° E daylight
02 Jul - 22:52:54 10° WSW 23:01:39 51° S 23:10:37 10° ESE visible
